{"data":{"norad_id":64698,"epoch":"2026-09-20T09:44:25.705248Z","epoch_age_seconds":135707,"freshness":"FRESH","line1":"1 64698U 25142C   26263.40585307  .00004819  00000+0  17189-3 0  9998","line2":"2 64698  70.0009 181.2444 0003504 269.7695  90.3079 15.29594287 68690","mean_motion":15.29594287,"eccentricity":0.0003504,"inclination_deg":70.0009,"raan_deg":181.2444,"arg_perigee_deg":269.7695,"mean_anomaly_deg":90.3079,"bstar":0.00017189,"rev_number":6869,"period_min":94.142611033432,"perigee_km":474.62216755567,"apogee_km":479.42626453588,"semimajor_km":6855.1612160458,"source":"CELESTRAK","updated_at":"2026-09-21T09:00:35.403099Z"}}